Terug naar catalogus

STARLINK-31222

ActiefCommunicatieVLEO
NORAD 58828·PAYLOAD·🇺🇸 United States

Gelanceerd Jan 24, 2024 vanaf Vandenberg Space Force Base

Loading…

Volgende Passages (komende 24 uur)

TLE

VersSource: CelesTrak SupGP

Epoch: Sep 14, 2026, 22:10 UTC

1 58828C 24017C   26257.92409722  .00024443  00000+0  72241-3 0  2574
2 58828  53.1596  43.4583 0001206  82.1442 345.5087 15.34368492    17

Volg STARLINK-31222 in realtime met AllMySat

Download on the App Store